Location: Ar Ranvel
(48.3000°N, 4.8833°W)
Time: 14:30:39
(UTC+00:00)

BlueWalker 3 - Pass Details

Date: 12 December 2022
Orbit: 499 x 517 km, 53.2° (Epoch: 01 February)

Event Time Altitude Azimuth Distance (km) Brightness Sun altitude
Rises 17:50:36 0° 294° (WNW) 2,630 6.3 -13.4°
Reaches altitude 10° 17:52:57 10° 285° (WNW) 1,736 5.5 -13.8°
Maximum altitude 17:56:29 32° 221° (SW) 882 3.8 -14.4°
Drops below altitude 10° 17:59:59 10° 156° (SSE) 1,715 4.6 -14.9°
Sets 18:02:17 0° 147° (SSE) 2,593 5.4 -15.3°
